sat.trackr.live / text

‹ back to catalog

USA 134

NORAD 25019 · 1997-065A

PAYLOAD ACTIVE UNKNOWN

§ Identity

Operator
Country
US
Launch date
1997-10-25
Launch site
AFETR
Launch vehicle
Mass (kg)
RCS (m²)

Purposes: comms

External: N2YO · Heavens-Above · Gunter

§ Orbital elements

Epoch: 2026-09-19T08:34:01.941024Z

Period
1,436.13 min
Inclination
12.8956°
Eccentricity
0.0002669
Mean motion
1.00269773 rev/d
Perigee alt
35,775.9 km
Apogee alt
35,798.4 km
Semi-major
42,165.3 km
B*
0.0000e+0
RAAN
20.9959°
Arg perigee
267.7934°
Mean anomaly
85.7581°
Rev number
3,389

§ Raw data

USA 1341 25019U 97065A   26262.35696691 -.00000063  00000+0  00000+0 0  99952 25019  12.8956  20.9959 0002669 267.7934  85.7581  1.00269773 33897

JSON: /api/v1/satellites/25019 · /tle

For live sub-satellite position, see the globe view (requires WebGL).

§ Visibility from observer

Set your observer location to see the next 7 days of passes ≥ 10°. The values pass through the URL so the page stays shareable.

No JS? Fill the form by hand. The geolocation button needs JavaScript.